(259387) Atauta = 2002 CK229 = 2003 KT13

Discovered at Sierra Nevada on 2003-05-25 by A. Sota.
(259387) Atauta = 2003 KT13

Atauta is a very small Spanish town located in the province of Soria, famous for the production of high-quality Ribera del Duero wine. Far away from big cities, its exceptionally dark skies are favorable for stargazing. The discoverer has ancestors from Atauta dating back to at least the sixteenth century. [Ref: Minor Planet Circ. 94741]

Orbit

Orbit type: Main Belt

Note: WebGL enabled browser required.

epoch2024-03-31.0
epoch JD2460400.5
perihelion date2026-02-14.25887
perihelion JD2461085.75887
argument of perihelion (°)118.90594
ascending node (°)134.57328
inclination (°)4.46362
eccentricity0.1698126
perihelion distance (AU)2.2728403
Tisserand w.r.t. Jupiter3.3
ΔV w.r.t. Earth (km/sec)9.6
semimajor axis (AU)2.7377435
mean anomaly (°)210.90284
mean daily motion (°/day)0.21757790
aphelion distance (AU)3.203
period (years)4.53
P-vector [x]-0.28247153
P-vector [y]-0.90499627
P-vector [z]-0.31810626
Q-vector [x]0.95767232
Q-vector [y]-0.24687794
Q-vector [z]-0.14803716
absolute magnitude16.25
phase slope0.15
uncertainty0
referenceMPEC 2024-C163
observations used551
oppositions20
arc length (days)9418
first opposition used1998
last opposition used2024
residual rms (arc-secs)0.78
perturbers coarse indicatorM-v
perturbers precise indicator003Ek
first observation date used1998-03-24.0
last observation date used2024-01-05.0
computer nameMPCLINUX
JD of orbit computation2456612.851538
perihelion JD uncertainty (days)7.2729E-05
argument of perihelion uncertainty (°)7.1694E-05
ascending node uncertainty (°)6.9967E-05
inclination uncertainty (°)4.3071E-06
eccentricity uncertainty 3.8673E-08
perihelion distance uncertainty (AU)1.0847E-07
Minimum Orbit Intersection Distances (in AU)
for orbit epoch: 2460200.5, reference: E2024-CG3
Mercury1.81474
Venus1.55328
Earth1.26569
Mars0.7653
Jupiter1.85078
Saturn5.86309
Uranus15.6283
Neptune26.711

Observations

575 total observations over interval: 1998 03 24.24175 – 2024 01 05.275426
These data are available for download (format description).

Date (UT) J2000 RA J2000 Dec Magn Location Ref
1998 03 24.24175 12 16 37.21 +04 07 33.8 19.4   704 – Lincoln Laboratory ETS, New Mexico MPS 103856
1998 03 24.25570 12 16 36.46 +04 07 38.8 19.8   704 – Lincoln Laboratory ETS, New Mexico MPS 103856
1998 03 24.26967 12 16 35.86 +04 07 45.4 19.9   704 – Lincoln Laboratory ETS, New Mexico MPS 103856
1998 03 24.28363 12 16 34.96 +04 07 52.4 19.6   704 – Lincoln Laboratory ETS, New Mexico MPS 103856
1998 03 24.29763 12 16 34.34 +04 07 57.1 19.6   704 – Lincoln Laboratory ETS, New Mexico MPS 103856
1999 08 03.36605 22 30 54.90 -10 44 31.3 20.4 V 691 – Steward Observatory, Kitt Peak-Spacewatch MPS 103856
1999 08 03.38921 22 30 53.99 -10 44 39.2 20.1 V 691 – Steward Observatory, Kitt Peak-Spacewatch MPS 103856
1999 08 03.41532 22 30 52.99 -10 44 47.8 20.3 V 691 – Steward Observatory, Kitt Peak-Spacewatch MPS 103856
2002 02 08.24276 08 32 01.19 +18 18 43.4 20.9 V 691 – Steward Observatory, Kitt Peak-Spacewatch MPS 52758
2002 02 08.26540 08 31 59.97 +18 18 49.7 20.4 V 691 – Steward Observatory, Kitt Peak-Spacewatch MPS 52758
2002 02 08.28802 08 31 58.71 +18 18 56.1 20.8 V 691 – Steward Observatory, Kitt Peak-Spacewatch MPS 52758
2002 02 11.23209 08 29 25.63 +18 32 05.2 20.0   704 – Lincoln Laboratory ETS, New Mexico MPS 54742
2002 02 11.24621 08 29 24.91 +18 32 09.5 20.1   704 – Lincoln Laboratory ETS, New Mexico MPS 54742
2002 02 11.26033 08 29 24.11 +18 32 13.7 19.9   704 – Lincoln Laboratory ETS, New Mexico MPS 54742
2002 02 11.28858 08 29 22.69 +18 32 20.0 20.7   704 – Lincoln Laboratory ETS, New Mexico MPS 54742
2002 02 13.20859 08 27 46.21 +18 40 41.6 21.7 V 691 – Steward Observatory, Kitt Peak-Spacewatch MPS 52758
2002 02 13.23084 08 27 45.07 +18 40 47.0 20.8 V 691 – Steward Observatory, Kitt Peak-Spacewatch MPS 52758
2002 02 13.25310 08 27 43.93 +18 40 52.9 20.7 V 691 – Steward Observatory, Kitt Peak-Spacewatch MPS 52758
2003 05 25.98049 16 44 16.14 -14 54 45.8 18.5 R J86 – Sierra Nevada Observatory MPS 80307
2003 05 26.00571 16 44 14.84 -14 54 44.2 18.6 R J86 – Sierra Nevada Observatory MPS 80307
2003 05 26.02905 16 44 13.59 -14 54 42.4 18.8 R J86 – Sierra Nevada Observatory MPS 80307
2003 05 26.07598 16 44 11.03 -14 54 39.3 18.9 R J86 – Sierra Nevada Observatory MPS 80307
2003 05 28.04473 16 42 30.86 -14 52 30.9 19.2 R J86 – Sierra Nevada Observatory MPS 80307
2003 05 28.14763 16 42 25.23 -14 52 23.2 19.4 R J86 – Sierra Nevada Observatory MPS 80307
2003 05 30.27549 16 40 35.69 -14 50 22.7 18.7   704 – Lincoln Laboratory ETS, New Mexico MPS 80307
2003 05 30.28602 16 40 35.20 -14 50 22.5 19.0   704 – Lincoln Laboratory ETS, New Mexico MPS 80307
2003 05 30.29650 16 40 34.57 -14 50 22.0 19.0   704 – Lincoln Laboratory ETS, New Mexico MPS 80307
2003 05 30.31761 16 40 33.42 -14 50 20.5 18.9   704 – Lincoln Laboratory ETS, New Mexico MPS 80307
2003 06 10.95480 16 30 33.88 -14 45 44.8   J86 – Sierra Nevada Observatory MPS 81586
2003 06 10.96704 16 30 33.24 -14 45 44.6   J86 – Sierra Nevada Observatory MPS 81586
2003 06 21.99458 16 22 26.08 -14 52 50.6 18.8 R J86 – Sierra Nevada Observatory MPS 82909
2003 06 22.02096 16 22 25.05 -14 52 52.3 18.8 R J86 – Sierra Nevada Observatory MPS 82909
2003 06 22.99431 16 21 48.80 -14 54 05.0 19.1 R J86 – Sierra Nevada Observatory MPS 82909
2003 06 22.99735 16 21 48.69 -14 54 05.0 18.8 R J86 – Sierra Nevada Observatory MPS 82909
2004 08 28.11622 01 34 32.09 +04 35 23.0 20.1 R J86 – Sierra Nevada Observatory MPS 112195
2004 08 28.15770 01 34 31.52 +04 35 14.4 19.6 R J86 – Sierra Nevada Observatory MPS 112195
2004 08 28.17672 01 34 31.28 +04 35 10.5 19.8 R J86 – Sierra Nevada Observatory MPS 112195
2004 10 10.296497 01 08 34.396 +00 50 13.68 20.16 V 645 – Apache Point-Sloan Digital Sky Survey MPS 390454
2004 10 10.299969 01 08 34.221 +00 50 12.48 20.85   645 – Apache Point-Sloan Digital Sky Survey MPS 390454
2004 10 16.340757 01 03 38.114 +00 17 49.44 20.27 V 645 – Apache Point-Sloan Digital Sky Survey MPS 390454
2004 10 16.344229 01 03 37.947 +00 17 48.49 20.97   645 – Apache Point-Sloan Digital Sky Survey MPS 390454
2004 10 20.335357 01 00 29.406 -00 01 43.12 20.69 V 645 – Apache Point-Sloan Digital Sky Survey MPS 390454
2004 10 20.338829 01 00 29.236 -00 01 44.01 21.38   645 – Apache Point-Sloan Digital Sky Survey MPS 390454
2004 11 05.235997 00 49 56.436 -00 59 05.54 20.86 V 645 – Apache Point-Sloan Digital Sky Survey MPS 390454
2004 11 05.239469 00 49 56.316 -00 59 06.05 21.68   645 – Apache Point-Sloan Digital Sky Survey MPS 390454
2004 12 13.141877 00 45 01.328 -00 39 05.56 21.62 V 645 – Apache Point-Sloan Digital Sky Survey MPS 390454
2004 12 13.145349 00 45 01.384 -00 39 05.01 22.32   645 – Apache Point-Sloan Digital Sky Survey MPS 390454
2006 01 28.21986 05 25 12.03 +19 24 14.5 21.3 V G96 – Mt. Lemmon Survey MPS 161761
2006 01 28.22653 05 25 11.89 +19 24 15.0 21.5 V G96 – Mt. Lemmon Survey MPS 161761
2006 01 28.23317 05 25 11.71 +19 24 15.6 21.0 V G96 – Mt. Lemmon Survey MPS 161761
2006 01 28.23985 05 25 11.53 +19 24 16.1 21.5 V G96 – Mt. Lemmon Survey MPS 161761
2007 02 09.48406 12 00 38.67 +03 33 29.3   691 – Steward Observatory, Kitt Peak-Spacewatch MPS 198687
2007 02 09.50239 12 00 38.36 +03 33 34.3   691 – Steward Observatory, Kitt Peak-Spacewatch MPS 198687
2007 02 09.51763 12 00 38.06 +03 33 38.5   691 – Steward Observatory, Kitt Peak-Spacewatch MPS 198687
2007 03 09.26454 11 44 55.46 +06 21 29.1 19.5 V 703 – Catalina Sky Survey MPS 202336
2007 03 09.27269 11 44 54.99 +06 21 31.2 19.6 V 703 – Catalina Sky Survey MPS 202336
2007 03 09.28079 11 44 54.56 +06 21 36.6 19.4 V 703 – Catalina Sky Survey MPS 202336
2007 03 09.28890 11 44 54.20 +06 21 39.0 19.4 V 703 – Catalina Sky Survey MPS 202336
2007 03 09.38732 11 44 49.44 +06 22 21.4 19.5 R 644 – Palomar Mountain/NEAT MPS 203012
2007 03 09.40781 11 44 48.44 +06 22 29.7 19.9 R 644 – Palomar Mountain/NEAT MPS 203012
2007 03 09.42814 11 44 47.43 +06 22 38.5 19.5 R 644 – Palomar Mountain/NEAT MPS 203012
2007 03 10.22518 11 44 09.81 +06 28 16.3 19.8 V 691 – Steward Observatory, Kitt Peak-Spacewatch MPS 202336
2007 03 10.24277 11 44 08.94 +06 28 23.5 19.9 V 691 – Steward Observatory, Kitt Peak-Spacewatch MPS 202336
2007 03 10.26035 11 44 08.07 +06 28 31.0 19.8 V 691 – Steward Observatory, Kitt Peak-Spacewatch MPS 202336
2007 03 11.59327 11 43 04.01 +06 37 55.1 19.4 R D29 – Purple Mountain Observatory, XuYi Station MPS 205529
2007 03 11.61856 11 43 02.73 +06 38 06.3 19.4 R D29 – Purple Mountain Observatory, XuYi Station MPS 205529
2007 03 11.64565 11 43 01.39 +06 38 17.6 19.5 R D29 – Purple Mountain Observatory, XuYi Station MPS 205529
2007 03 11.67282 11 42 59.99 +06 38 29.1 19.3 R D29 – Purple Mountain Observatory, XuYi Station MPS 205529
2007 03 14.11515 11 41 00.99 +06 55 39.8 20.0 V 691 – Steward Observatory, Kitt Peak-Spacewatch MPS 203012
2007 03 14.13277 11 41 00.25 +06 55 46.7 20.0 V 691 – Steward Observatory, Kitt Peak-Spacewatch MPS 203012
2007 03 14.15039 11 40 59.35 +06 55 54.6 19.7 V 691 – Steward Observatory, Kitt Peak-Spacewatch MPS 203012
2008 08 24.20543 21 27 29.48 -16 13 31.8 19.2   704 – Lincoln Laboratory ETS, New Mexico MPS 255805
2008 08 24.21848 21 27 28.80 -16 13 34.2 19.7   704 – Lincoln Laboratory ETS, New Mexico MPS 255805
2008 08 24.23150 21 27 28.28 -16 13 39.9 20.0   704 – Lincoln Laboratory ETS, New Mexico MPS 255805
2008 08 24.24452 21 27 27.57 -16 13 41.9 19.5   704 – Lincoln Laboratory ETS, New Mexico MPS 255805
2008 08 24.25771 21 27 26.80 -16 13 48.8 19.6   704 – Lincoln Laboratory ETS, New Mexico MPS 255805
2009 11 16.32833 03 23 01.42 +11 54 04.9 20.1 V G96 – Mt. Lemmon Survey MPS 303241
2009 11 16.33593 03 23 01.03 +11 54 03.2 20.2 V G96 – Mt. Lemmon Survey MPS 303241
2009 11 16.34360 03 23 00.60 +11 54 02.0 20.2 V G96 – Mt. Lemmon Survey MPS 303241
2009 11 16.35135 03 23 00.16 +11 54 00.7 20.2 V G96 – Mt. Lemmon Survey MPS 303241
